Weather History for KVPC - January, 2014

Change the Weather History Date:

Saturday, January 11, 2014

  Actual Average Record
Temperature  
Mean Temperature 65 °F 41 °F  
Max Temperature 80 °F 51 °F 80 °F (2014)
Min Temperature 50 °F 30 °F 19 °F (2004)
Degree Days  
Heating Degree Days 0 24  
Month to date heating degree days 306 264  
Since 1 July heating degree days 1580 1566  
Cooling Degree Days 2    
Growing Degree Days 18 (Base 50)    
Moisture  
Dew Point 52 °F    
Average Humidity 56    
Maximum Humidity 83    
Minimum Humidity 29    
Precipitation  
Precipitation 1.04 in 0.14 in 1.79 in (1972)
Month to date precipitation 1.72 1.31  
Year to date precipitation 1.72 1.31  
Snow  
Snow 0.00 in - - ()
Month to date snowfall 0.0  
Since 1 July snowfall 0.0  
Snow Depth 0.00 in    
Sea Level Pressure  
Sea Level Pressure 29.80 in    
Wind  
Wind Speed 3 mph (SSE)    
Max Wind Speed 14 mph    
Max Gust Speed 25 mph    
Visibility 6 miles    
Events Rain , Thunderstorm    
T = Trace of Precipitation, MM = Missing Value Source: NWS Daily Summary

Daily Weather History Graph

Daily Weather History Graph

Search for Another Location

Airport or City:

Trip Planner

Search our weather history database for the weather conditions in past years. The results will help you decide how hot, cold, wet, or windy it might be!

Date:

Astronomy

Jan. 11, 2014 Rise Set
Actual Time 7:45 AM EST 5:49 PM EST
Civil Twilight 7:18 AM EST 6:16 PM EST
Nautical Twilight 6:47 AM EST 6:47 PM EST
Astronomical Twilight 6:17 AM EST 7:17 PM EST
Moon 2:31 PM EST (1/11) 3:52 AM EST (1/11)
Length of Visible Light 10h 58m
Length of Day
10h 03m
Waxing Gibbous, 83% of the Moon is Illuminated
Jan 11
Waxing Gibbous
Jan 15
Full
Jan 24
Last Quarter
Jan 30
New
Feb 6
First Quarter

Hourly Weather History & Observations

Time (EST) Temp. Dew Point Humidity Pressure Visibility Wind Dir Wind Speed Gust Speed Precip Events Conditions
12:00 AM 62.6 °F 46.4 °F 55% 30.00 in 2.5 mi ESE 5.8 mph - N/A   Haze
12:17 AM 66.2 °F 46.4 °F 49% 29.98 in 3.0 mi ESE 8.1 mph - N/A   Haze
12:53 AM 64.9 °F 48.0 °F 54% 29.92 in 3.0 mi Variable 6.9 mph - 0.01 in   Haze
1:53 AM 64.9 °F 48.0 °F 54% 29.86 in 2.5 mi ESE 11.5 mph 17.3 mph 0.01 in Rain Light Rain
2:01 AM 64.4 °F 48.2 °F 56% 29.89 in 5.0 mi SE 6.9 mph 17.3 mph 0.00 in Rain Light Rain
2:15 AM 59.0 °F 50.0 °F 72% 29.91 in 1.8 mi Calm Calm - 0.07 in Rain Heavy Rain
2:23 AM 64.4 °F 48.2 °F 56% 29.89 in 3.0 mi SE 5.8 mph - 0.07 in Rain Light Rain
2:37 AM 62.6 °F 50.0 °F 63% 29.89 in 9.0 mi Variable 4.6 mph - 0.08 in Rain Light Rain
2:53 AM 55.0 °F 50.0 °F 83% 29.86 in 8.0 mi Calm Calm - 0.09 in Rain Light Rain
3:53 AM 68.0 °F 53.1 °F 59% 29.81 in 10.0 mi Variable 4.6 mph - 0.01 in Rain Light Rain
4:43 AM 60.8 °F 53.6 °F 77% 29.82 in 10.0 mi Variable 3.5 mph - 0.00 in   Mostly Cloudy
4:53 AM 72.0 °F 54.0 °F 53% 29.78 in 10.0 mi SSE 4.6 mph - 0.00 in   Mostly Cloudy
5:01 AM 73.4 °F 53.6 °F 50% 29.80 in 10.0 mi SE 6.9 mph - N/A   Mostly Cloudy
5:21 AM 71.6 °F 55.4 °F 57% 29.80 in 10.0 mi Variable 4.6 mph - 0.00 in   Overcast
5:32 AM 73.4 °F 55.4 °F 53% 29.78 in 9.0 mi SE 6.9 mph - 0.00 in   Overcast
5:53 AM 73.9 °F 55.9 °F 53% 29.74 in 7.0 mi SSE 8.1 mph - 0.00 in   Overcast
6:25 AM 75.2 °F 57.2 °F 53% 29.75 in 7.0 mi SSE 5.8 mph - 0.01 in   Overcast
6:35 AM 77.0 °F 59.0 °F 54% 29.75 in 10.0 mi SSE 8.1 mph - 0.01 in   Overcast
6:45 AM 77.0 °F 60.8 °F 57% 29.75 in 5.0 mi South 8.1 mph - 0.02 in Rain Light Rain
6:53 AM 77.0 °F 60.1 °F 56% 29.70 in 9.0 mi South 10.4 mph 18.4 mph 0.02 in Rain , Thunderstorm Light Rain
7:20 AM 75.2 °F 60.8 °F 61% 29.76 in 10.0 mi Variable 4.6 mph 20.7 mph 0.01 in Thunderstorm Thunderstorm
7:28 AM 69.8 °F 60.8 °F 73% 29.78 in 4.0 mi Variable 6.9 mph - 0.03 in Rain , Thunderstorm Light Thunderstorms and Rain
7:31 AM 69.8 °F 59.0 °F 68% 29.79 in 1.5 mi WSW 8.1 mph 25.3 mph 0.19 in Rain , Thunderstorm Heavy Rain
7:33 AM 69.8 °F 59.0 °F 68% 29.79 in 0.8 mi WSW 8.1 mph 25.3 mph 0.29 in Rain , Thunderstorm Heavy Rain
7:39 AM 69.8 °F 57.2 °F 64% 29.80 in 0.5 mi SSW 8.1 mph 25.3 mph 0.44 in Rain , Thunderstorm Heavy Rain
7:43 AM 71.6 °F 57.2 °F 60% 29.77 in 1.0 mi Variable 5.8 mph 25.3 mph 0.51 in Rain , Thunderstorm Heavy Rain
7:53 AM 72.0 °F 57.0 °F 59% 29.74 in 2.0 mi Variable 4.6 mph - 0.57 in Rain , Thunderstorm Thunderstorms and Rain
7:55 AM 71.6 °F 57.2 °F 60% 29.76 in 3.0 mi Variable 6.9 mph - 0.00 in Rain , Thunderstorm Thunderstorms and Rain
8:06 AM 69.8 °F 57.2 °F 64% 29.77 in 6.0 mi Variable 3.5 mph - 0.02 in Rain Light Rain
8:41 AM 69.8 °F 57.2 °F 64% 29.79 in 5.0 mi Calm Calm - 0.08 in Rain Light Rain
8:51 AM 68.0 °F 57.2 °F 68% 29.79 in 5.0 mi Calm Calm - 0.11 in Rain , Thunderstorm Rain
8:53 AM 68.0 °F 57.0 °F 68% 29.75 in 5.0 mi Calm Calm - 0.11 in Rain , Thunderstorm Rain
9:03 AM 69.8 °F 57.2 °F 64% 29.79 in 6.0 mi Calm Calm - 0.03 in Rain , Thunderstorm Rain
9:20 AM 62.6 °F 55.4 °F 77% 29.80 in 2.5 mi Calm Calm - 0.09 in Rain Rain
9:30 AM 64.4 °F 57.2 °F 77% 29.81 in 2.0 mi Calm Calm - 0.13 in Rain Rain
9:32 AM 64.4 °F 57.2 °F 77% 29.80 in 1.8 mi Variable 3.5 mph - 0.14 in Rain Rain
9:37 AM 66.2 °F 57.2 °F 73% 29.81 in 2.0 mi Calm Calm - 0.15 in Rain Rain
9:41 AM 64.4 °F 57.2 °F 77% 29.82 in 3.0 mi Calm Calm - 0.16 in Rain Light Rain
9:53 AM 63.0 °F 57.0 °F 81% 29.79 in 3.0 mi Calm Calm - 0.19 in Rain Rain
10:18 AM 66.2 °F 55.4 °F 68% 29.79 in 3.0 mi Calm Calm - 0.03 in Rain Light Rain
10:25 AM 62.6 °F 57.2 °F 82% 29.80 in 3.0 mi Calm Calm - 0.03 in   Haze
10:53 AM 68.0 °F 57.0 °F 68% 29.79 in 10.0 mi Calm Calm - 0.03 in   Overcast
11:17 AM 62.6 °F 57.2 °F 82% 29.80 in 10.0 mi Calm Calm - N/A   Overcast
11:41 AM 68.0 °F 57.2 °F 68% 29.80 in 10.0 mi Calm Calm - N/A   Mostly Cloudy
11:53 AM 66.9 °F 57.0 °F 70% 29.77 in 10.0 mi Calm Calm - N/A   Scattered Clouds
12:29 PM 75.2 °F 55.4 °F 50% 29.78 in 10.0 mi Variable 4.6 mph - N/A   Mostly Cloudy
12:53 PM 72.0 °F 55.0 °F 55% 29.75 in 10.0 mi Calm Calm - N/A   Overcast
1:13 PM 71.6 °F 53.6 °F 53% 29.77 in 10.0 mi Variable 3.5 mph - N/A   Scattered Clouds
1:53 PM 80.1 °F 50.0 °F 35% 29.72 in 10.0 mi Variable 5.8 mph - N/A   Partly Cloudy
2:53 PM 73.9 °F 46.9 °F 38% 29.70 in 10.0 mi Variable 4.6 mph - N/A   Scattered Clouds
3:53 PM 72.0 °F 37.0 °F 28% 29.69 in 10.0 mi Calm Calm - N/A   Clear
4:53 PM 72.0 °F 39.0 °F 30% 29.69 in 10.0 mi Calm Calm - N/A   Mostly Cloudy
5:53 PM 64.9 °F 33.1 °F 31% 29.73 in 10.0 mi Variable 3.5 mph - N/A   Clear
6:53 PM 62.1 °F 32.0 °F 32% 29.77 in 10.0 mi Variable 3.5 mph - N/A   Clear
7:53 PM 55.9 °F 33.1 °F 42% 29.81 in 10.0 mi Calm Calm - N/A   Mostly Cloudy
8:53 PM 60.1 °F 35.1 °F 39% 29.85 in 10.0 mi Variable 3.5 mph - N/A   Partly Cloudy
9:53 PM 55.0 °F 37.0 °F 51% 29.90 in 10.0 mi Calm Calm - N/A   Clear
10:53 PM 55.9 °F 36.0 °F 47% 29.93 in 10.0 mi Variable 3.5 mph - N/A   Clear
11:53 PM 51.1 °F 35.1 °F 54% 29.96 in 10.0 mi Calm Calm - N/A   Clear